DO9LL-1 Weather Reports


Display with metric or nautical units.
time (UTC)temp
F
wind
direction
speed
MPH
gust
MPH
rain 1hr
in
rain 24hr
in
rain mn
in
humidity
%
barometer
mb
20260902030726 57 0.0 0.0 0.00 0.05 0.00 85 1018.8
20260902025723 57 0.0 0.0 0.00 0.05 0.00 85 1018.8
20260902024720 57 150 0.0 1.0 0.00 0.05 0.00 85 1018.8
20260902023717 57 161 0.0 1.0 0.00 0.05 0.00 86 1018.9
20260902022735 57 0.0 0.0 0.00 0.05 0.00 86 1019.1
20260902021731 58 0.0 0.0 0.00 0.05 0.00 85 1019.1
20260902020730 58 0.0 0.0 0.00 0.05 0.00 84 1019.0
20260902015725 57 160 0.0 1.0 0.00 0.05 0.00 84 1019.0
20260902014722 58 143 0.0 1.0 0.00 0.05 0.00 84 1019.0
20260902013719 57 151 0.0 2.0 0.00 0.05 0.00 84 1019.0
20260902012721 58 166 0.0 1.0 0.00 0.05 0.00 83 1018.9
20260902011733 57 154 1.0 2.0 0.00 0.05 0.00 83 1019.0
20260902010731 57 151 0.0 2.0 0.00 0.05 0.00 83 1019.0
20260902005728 57 0.0 0.0 0.00 0.05 0.00 83 1019.0
20260902004724 57 159 1.0 2.0 0.00 0.05 0.00 84 1019.0
20260902003721 56 0.0 0.0 0.00 0.05 0.00 86 1019.0
20260902002719 56 0.0 0.0 0.00 0.05 0.00 87 1019.2
20260902001715 55 0.0 0.0 0.00 0.05 0.00 88 1019.2
20260902000733 55 157 0.0 1.0 0.00 0.05 0.00 89 1019.1
20260901235730 55 0.0 0.0 0.00 0.05 0.00 89 1019.2
20260901234727 55 178 0.0 1.0 0.00 0.05 0.00 88 1019.3
20260901233727 55 0.0 0.0 0.00 0.05 0.00 86 1019.3
20260901232721 55 0.0 0.0 0.00 0.05 0.00 86 1019.2
20260901231718 56 0.0 0.0 0.00 0.05 0.00 87 1019.1
20260901230735 55 0.0 0.0 0.00 0.05 0.00 87 1019.3
20260901225732 55 0.0 0.0 0.00 0.05 0.00 88 1019.3
20260901224729 55 0.0 0.0 0.00 0.05 0.00 88 1019.6
20260901223726 55 0.0 0.0 0.00 0.05 0.00 88 1019.7
20260901222723 54 0.0 0.0 0.00 0.05 0.00 88 1019.8
20260901221719 54 0.0 0.0 0.00 0.05 0.00 89 1019.8
20260901220717 54 0.0 0.0 0.00 0.05 0.00 88 1019.9
20260901215734 54 0.0 0.0 0.00 0.05 0.05 88 1019.9
20260901214731 54 0.0 0.0 0.00 0.05 0.05 86 1020.0
20260901213728 54 0.0 0.0 0.00 0.05 0.05 86 1019.9
20260901212725 54 0.0 0.0 0.00 0.05 0.05 85 1019.8
20260901211722 55 0.0 0.0 0.00 0.05 0.05 85 1019.6
20260901210719 55 0.0 0.0 0.00 0.05 0.05 83 1019.7
20260901205716 56 0.0 0.0 0.00 0.05 0.05 83 1019.6
20260901204733 56 0.0 0.0 0.00 0.05 0.05 82 1019.5
20260901203730 56 0.0 0.0 0.00 0.05 0.05 81 1019.4
20260901202727 57 0.0 0.0 0.00 0.05 0.05 81 1019.5
20260901201724 57 0.0 0.0 0.00 0.05 0.05 81 1019.5
20260901200720 57 0.0 0.0 0.00 0.08 0.05 81 1019.5
20260901195718 57 0.0 0.0 0.00 0.08 0.05 80 1019.4
20260901194735 58 0.0 0.0 0.00 0.08 0.05 79 1019.4
20260901193732 58 0.0 0.0 0.00 0.08 0.05 78 1019.4
20260901192729 59 0.0 0.0 0.00 0.08 0.05 77 1019.4
20260901191726 60 0.0 0.0 0.00 0.08 0.05 75 1019.4
20260901190723 60 0.0 0.0 0.00 0.08 0.05 74 1019.4
20260901185720 61 0.0 0.0 0.00 0.08 0.05 73 1019.5
20260901184716 62 0.0 0.0 0.00 0.08 0.05 69 1019.4
20260901183734 63 0.0 0.0 0.00 0.08 0.05 66 1019.3
20260901182731 64 0.0 0.0 0.00 0.08 0.05 64 1019.2
20260901181728 65 0.0 0.0 0.00 0.08 0.05 63 1019.2
20260901180725 65 0.0 0.0 0.00 0.08 0.05 62 1019.2
20260901175722 66 313 0.0 1.0 0.00 0.08 0.05 61 1019.2
20260901174718 67 291 1.0 2.0 0.00 0.08 0.05 59 1019.2
20260901173716 68 309 1.0 2.0 0.00 0.08 0.05 58 1019.0
20260901172738 68 299 1.0 2.0 0.00 0.08 0.05 58 1019.0
20260901171730 69 307 1.0 2.0 0.00 0.08 0.05 57 1018.9
20260901170726 69 277 1.0 3.0 0.00 0.08 0.05 56 1018.9
20260901165723 70 266 2.0 6.0 0.00 0.08 0.05 54 1018.9
20260901164720 70 265 2.0 3.0 0.00 0.08 0.05 54 1018.9
20260901163718 71 300 1.0 3.0 0.00 0.08 0.05 54 1018.7
20260901162734 71 263 2.0 4.0 0.00 0.08 0.05 55 1018.6
20260901161733 71 291 2.0 8.0 0.00 0.08 0.05 53 1018.7
20260901160728 71 298 2.0 7.0 0.00 0.08 0.05 55 1018.6
20260901155726 71 296 2.0 3.0 0.00 0.08 0.05 56 1018.7
20260901154723 71 312 3.0 4.0 0.00 0.08 0.05 56 1018.7
20260901153720 71 327 2.0 6.0 0.00 0.08 0.05 57 1018.6
20260901152722 70 305 3.0 8.0 0.00 0.08 0.05 57 1018.5
20260901151734 72 317 2.0 4.0 0.00 0.08 0.05 56 1018.5
20260901150731 71 305 3.0 8.0 0.00 0.08 0.05 57 1018.5
20260901145728 70 282 2.0 4.0 0.00 0.08 0.05 58 1018.5
20260901144725 69 278 3.0 7.0 0.00 0.08 0.05 60 1018.4
20260901143722 71 315 3.0 6.0 0.00 0.08 0.05 58 1018.4
20260901142719 72 302 3.0 7.0 0.00 0.08 0.05 58 1018.4
20260901141716 70 267 2.0 4.0 0.00 0.08 0.05 60 1018.4
20260901140733 69 275 3.0 4.0 0.00 0.08 0.05 63 1018.4
20260901135730 68 259 3.0 7.0 0.00 0.09 0.05 66 1018.4
20260901134728 68 285 2.0 6.0 0.00 0.09 0.05 66 1018.5
20260901133724 69 254 3.0 6.0 0.00 0.09 0.05 65 1018.3
20260901132721 67 319 3.0 6.0 0.00 0.09 0.05 69 1018.3
20260901131718 67 297 2.0 4.0 0.00 0.09 0.05 71 1018.3
20260901130716 67 313 2.0 6.0 0.00 0.09 0.05 71 1018.3
20260901125732 68 293 2.0 6.0 0.00 0.09 0.05 70 1018.3
20260901124730 69 278 2.0 6.0 0.00 0.09 0.05 70 1018.3
20260901123727 68 244 3.0 8.0 0.00 0.09 0.05 69 1018.4
20260901122724 68 266 4.0 9.0 0.00 0.09 0.05 70 1018.4
20260901121721 69 242 5.0 9.0 0.00 0.09 0.05 70 1018.4
20260901120718 68 246 4.0 9.0 0.00 0.09 0.05 75 1018.1
20260901115735 67 245 4.0 9.0 0.00 0.09 0.05 77 1018.2
20260901114732 67 261 3.0 11.0 0.00 0.09 0.05 77 1018.2
20260901113729 68 258 4.0 7.0 0.00 0.09 0.05 77 1018.1
20260901112726 67 261 3.0 8.0 0.00 0.09 0.05 80 1018.2
20260901111723 67 266 3.0 7.0 0.00 0.09 0.05 80 1018.2
20260901110720 66 247 2.0 4.0 0.00 0.09 0.05 82 1018.1
20260901105717 66 254 2.0 4.0 0.00 0.09 0.05 83 1018.4
20260901104734 66 242 3.0 7.0 0.00 0.09 0.05 86 1018.4
20260901103731 64 242 2.0 6.0 0.01 0.09 0.05 88 1018.4
20260901102728 63 251 2.0 4.0 0.01 0.21 0.05 90 1018.4
20260901101725 63 232 2.0 4.0 0.01 0.21 0.05 92 1018.4
20260901100721 62 267 2.0 4.0 0.01 0.21 0.05 92 1018.4
20260901095718 62 238 1.0 3.0 0.01 0.21 0.05 94 1018.5
20260901094715 62 235 2.0 6.0 0.01 0.21 0.05 93 1018.6
20260901093733 62 260 3.0 6.0 0.01 0.20 0.04 92 1018.5
20260901092740 62 265 2.0 4.0 0.03 0.20 0.04 93 1018.6
20260901091729 62 254 3.0 6.0 0.03 0.20 0.04 93 1018.4
20260901090724 62 266 3.0 6.0 0.04 0.20 0.04 94 1018.3
20260901085721 62 260 2.0 4.0 0.04 0.20 0.04 94 1018.2
20260901084718 61 269 2.0 6.0 0.04 0.20 0.04 94 1018.2
20260901083735 62 271 2.0 6.0 0.03 0.19 0.03 93 1018.2
20260901082737 62 257 2.0 3.0 0.01 0.17 0.01 93 1018.0
20260901081730 62 231 1.0 2.0 0.01 0.17 0.01 93 1017.9
20260901080726 62 248 2.0 4.0 0.00 0.16 0.00 93 1017.8
20260901075724 61 259 2.0 4.0 0.00 0.16 0.00 93 1017.8
20260901074720 61 260 1.0 4.0 0.00 0.16 0.00 93 1017.7
20260901073718 61 246 2.0 3.0 0.00 0.16 0.00 93 1017.7
20260901072734 61 218 2.0 7.0 0.00 0.16 0.00 94 1017.6
20260901071732 61 220 2.0 4.0 0.00 0.16 0.00 94 1017.5
20260901070728 61 257 2.0 4.0 0.00 0.16 0.00 94 1017.5
20260901065727 60 267 2.0 4.0 0.00 0.16 0.00 94 1017.4
20260901064723 60 249 2.0 4.0 0.00 0.16 0.00 95 1017.4
20260901063720 60 269 2.0 6.0 0.00 0.16 0.00 95 1017.3
20260901062722 60 259 2.0 6.0 0.00 0.16 0.00 95 1017.1
20260901061739 60 254 1.0 4.0 0.00 0.16 0.00 95 1017.0
20260901060732 59 269 2.0 4.0 0.00 0.16 0.00 95 1017.1
20260901055728 59 226 1.0 3.0 0.00 0.16 0.00 95 1017.0
20260901054725 59 203 0.0 4.0 0.00 0.16 0.00 95 1017.0
20260901053722 59 236 1.0 2.0 0.00 0.16 0.00 95 1016.9
20260901052719 59 261 2.0 7.0 0.00 0.16 0.00 96 1016.8
20260901051716 58 255 1.0 3.0 0.00 0.16 0.00 96 1016.6
20260901050733 58 273 0.0 3.0 0.00 0.16 0.00 95 1016.5
20260901045730 58 212 0.0 1.0 0.00 0.16 0.00 95 1016.4
20260901044727 58 262 0.0 2.0 0.00 0.16 0.00 95 1016.3
20260901043724 58 253 0.0 1.0 0.00 0.16 0.00 95 1016.3
20260901042721 58 273 0.0 1.0 0.00 0.16 0.00 95 1016.2
20260901041718 58 0.0 0.0 0.00 0.16 0.00 94 1016.2
20260901040735 58 271 0.0 1.0 0.00 0.16 0.00 94 1016.2
20260901035733 58 268 1.0 2.0 0.00 0.16 0.00 94 1016.1
20260901034730 58 257 0.0 3.0 0.00 0.16 0.00 94 1016.0
20260901033727 59 265 1.0 2.0 0.00 0.16 0.00 93 1015.9
20260901032724 59 234 1.0 3.0 0.00 0.16 0.00 93 1015.7
20260901031720 59 211 0.0 2.0 0.00 0.17 0.00 93 1015.8